Regional Weather Roundup
Issued by NWS Kansas City/Pleasant Hill, MO

Home | Current Version | Previous Version | Text Only | Print | Product List | Glossary On
Versions: 1 2 3 4 5 6 7 8 9 10 11 12 13 14 15 16 17 18 19 20 21 22 23 24 25 26 27 28
000
ASUS43 KEAX 250610
RWREAX

WEATHER ROUNDUP FOR EASTERN KANSAS AND NORTHWEST MISSOURI
NATIONAL WEATHER SERVICE KANSAS CITY/PLEASANT HILL MO
100 AM CDT WED APR 25 2018

KSZ040-057-103>105-MOZ028-029-037-043-250700-
...KANSAS CITY METROPOLITAN AREA...

CITY           SKY/WX    TMP DP  RH WIND       PRES   REMARKS
K.C. INTL      CLOUDY    57  46  66 N14       30.11S
6HR MIN TEMP:  57; 6HR MAX TEMP:  70;

K.C. DOWNTOWN  CLOUDY    60  46  59 N7        30.10F
6HR MIN TEMP:  60; 6HR MAX TEMP:  73;

LEES SUMMIT    CLOUDY    59  47  64 N9        30.11S
6HR MIN TEMP:  59; 6HR MAX TEMP:  71;

OLATHE - IXD   CLOUDY    58  46  64 N12       30.12F
6HR MIN TEMP:  58; 6HR MAX TEMP:  71; 6HR PCP: TRACE;

OLATHE - OJC   CLOUDY    59  46  62 N12       30.11S
6HR MIN TEMP:  59; 6HR MAX TEMP:  72; 6HR PCP: TRACE;

LAWRENCE       CLOUDY    57  47  69 NW7       30.12F

$$

MOZ001>008-011>017-020>025-030>033-038>040-044>046-053-054-250700-
...NORTHERN AND CENTRAL MISSOURI...

CITY           SKY/WX    TMP DP  RH WIND       PRES   REMARKS
ST. JOSEPH     CLOUDY    56  47  71 N14       30.14R
6HR MIN TEMP:  56; 6HR MAX TEMP:  69;

MOSBY          CLOUDY    59  45  58 N8        30.10F
WARRENSBURG    CLOUDY    59  45  58 NW6       30.09S
WHITEMAN AFB   NOT AVBL
CLINTON        CLOUDY    57  46  67 NW8       30.09S
SEDALIA        CLOUDY    61  45  55 NW12      30.07F
6HR MIN TEMP:  61; 6HR MAX TEMP:  75;

WARSAW         NOT AVBL
CHILLICOTHE      N/A     62  45  53 N8        30.12R
6HR MIN TEMP:  56; 6HR MAX TEMP:  72;

KIRKSVILLE     CLEAR     57  46  66 N13       30.09R
6HR MIN TEMP:  56; 6HR MAX TEMP:  70;


$$

MOZ041-047>049-056>058-063>065-088>090-097-250700-
...EASTERN AND SOUTHERN MISSOURI...

CITY           SKY/WX    TMP DP  RH WIND       PRES   REMARKS
ST. LOUIS INTL PTCLDY    55  41  59 W8        29.99F
6HR MIN TEMP:  50; 6HR MAX TEMP:  70;

SPIRIT OF STL  CLEAR     46  44  93 SW3       29.99S
COLUMBIA       CLOUDY    58  34  40 N9        30.04S
JEFFERSON CITY PTCLDY    54  43  66 NW5       30.04R
ROLLA          PTCLDY    52  42  69 NW3       30.04S
OSAGE BEACH    CLEAR     51  42  71 W3        30.06S
SPRINGFIELD    CLEAR     53  39  59 CALM      30.06S
BRANSON        CLEAR     55  39  54 CALM      30.08S
JOPLIN         CLEAR     57  45  64 N8        30.09F
WEST PLAINS    CLEAR     50  45  83 W5        30.06R

$$

IAZ060-094-KSZ022-034>040-054-083-096-NEZ052-066-093-250700-
...KANSAS...SOUTHEAST NEBRASKA AND IOWA...

CITY           SKY/WX    TMP DP  RH WIND       PRES   REMARKS
TOPEKA         CLOUDY    55  49  80 W10       30.15S
6HR MIN TEMP:  55; 6HR MAX TEMP:  64;

MANHATTAN      LGT RAIN  50  46  86 NW5       30.22R
EMPORIA        CLOUDY    52  47  83 NW15      30.16S
CHANUTE        CLOUDY    56  48  74 NW9       30.12F
WICHITA        LGT RAIN  49  46  90 N14       30.20S
OMAHA          CLOUDY    50  46  86 N13       30.23R
LINCOLN        LGT RAIN  48  46  93 N10       30.24S FOG
FALLS CITY     CLOUDY    54  46  74 N10       30.15F
LAMONI         CLOUDY    54  41  61 N18       30.14R
DES MOINES     CLOUDY    54  42  64 N13       30.18R

$$





USA.gov is the U.S. government's official web portal to all federal, state and local government web resources and services.